M0ZPG Weather Reports


time (UTC)temp
C
wind
direction
speed
KPH
gust
KPH
rain 1hr
cm
rain 24hr
cm
rain mn
cm
humidity
%
barometer
mb
20260502170213 15 137 0.0 4.8 0.03 0.03 0.03 82 1011.7
20260502163603 18 130 3.2 14.5 0.00 0.00 0.00 71 1012.3
20260502162703 18 136 3.2 11.3 0.00 0.00 0.00 65 1012.0
20260502161803 19 146 3.2 8.0 0.00 0.00 0.00 64 1011.9
20260502160904 20 136 3.2 12.9 0.00 0.00 0.00 62 1011.7
20260502152015 21 147 3.2 8.0 0.00 0.00 0.00 52 1012.4
20260502150906 22 144 3.2 9.7 0.00 0.00 0.00 52 1012.4
20260502123605 22 178 0.0 4.8 0.00 0.00 0.00 46 1014.7
20260502122703 21 179 0.0 4.8 0.00 0.00 0.00 47 1014.7
20260502121804 21 183 1.6 4.8 0.00 0.00 0.00 45 1014.9
20260502120905 21 208 1.6 4.8 0.00 0.00 0.00 45 1015.0
20260502115406 21 250 1.6 4.8 0.00 0.00 0.00 48 1015.2
20260502114505 21 203 0.0 4.8 0.00 0.00 0.00 51 1015.4
20260502113605 20 191 1.6 9.7 0.00 0.00 0.00 46 1015.6
20260502112705 20 175 1.6 3.2 0.00 0.00 0.00 48 1015.5
20260502111805 20 165 1.6 3.2 0.00 0.00 0.00 50 1015.6
20260502110906 19 157 0.0 3.2 0.00 0.00 0.00 49 1015.5
20260502110004 18 156 1.6 4.8 0.00 0.00 0.00 57 1015.8
20260502105403 18 164 1.6 8.0 0.00 0.00 0.00 60 1016.0
20260502104504 19 180 1.6 4.8 0.00 0.00 0.00 59 1016.2
20260502103603 18 181 1.6 4.8 0.00 0.00 0.00 61 1016.1
20260502102705 18 199 1.6 4.8 0.00 0.00 0.00 62 1016.0
20260502100903 17 272 0.0 4.8 0.00 0.00 0.00 67 1016.4
20260502100218 17 271 0.0 3.2 0.00 0.00 0.00 69 1016.4
20260502090905 15 235 0.0 4.8 0.00 0.00 0.00 75 1016.8
20260502070905 11 237 0.0 4.8 0.00 0.00 0.00 90 1017.4
20260502070003 10 245 0.0 3.2 0.00 0.00 0.00 91 1017.4
20260502065403 10 246 0.0 6.4 0.00 0.00 0.00 91 1017.4
20260502064506 10 248 0.0 4.8 0.00 0.00 0.00 91 1017.4
20260502063605 10 247 0.0 4.8 0.00 0.00 0.00 91 1017.3
20260502062918 10 244 1.6 6.4 0.00 0.00 0.00 92 1017.4
20260502061803 10 179 1.6 4.8 0.00 0.00 0.00 92 1017.3
20260502061118 10 176 0.0 4.8 0.00 0.00 0.00 92 1017.4
20260502060215 10 186 1.6 6.4 0.00 0.00 0.00 91 1017.4
20260502055616 10 205 1.6 4.8 0.00 0.00 0.00 92 1017.4
20260502054505 10 180 0.0 1.6 0.00 0.00 0.00 92 1017.3
20260502053816 10 180 0.0 3.2 0.00 0.00 0.00 92 1017.4
20260502052703 10 0 0.0 0.0 0.00 0.00 0.00 92 1017.3
20260502051803 10 180 0.0 1.6 0.00 0.00 0.00 92 1017.3
20260502050903 10 180 0.0 3.2 0.00 0.00 0.00 92 1017.3
20260502050006 9 180 0.0 1.6 0.00 0.00 0.00 92 1017.3
20260502045403 9 180 0.0 1.6 0.00 0.00 0.00 92 1017.3
20260502044505 9 0 0.0 0.0 0.00 0.00 0.00 92 1017.3
20260502043605 9 180 0.0 1.6 0.00 0.00 0.00 92 1017.2
20260502042705 9 0 0.0 0.0 0.00 0.00 0.00 92 1017.1
20260502041804 9 180 0.0 1.6 0.00 0.00 0.00 91 1017.1
20260502040905 9 0 0.0 0.0 0.00 0.00 0.00 91 1017.2
20260502040005 9 180 0.0 1.6 0.00 0.00 0.00 91 1017.1
20260502035405 10 180 0.0 1.6 0.00 0.00 0.00 91 1017.3
20260502034503 10 180 0.0 1.6 0.00 0.00 0.00 91 1017.4
20260502033813 10 180 0.0 1.6 0.00 0.00 0.00 91 1017.4
20260502032920 10 180 0.0 3.2 0.00 0.00 0.00 91 1017.4
20260502032017 10 180 0.0 3.2 0.00 0.00 0.00 91 1017.5
20260502031114 10 180 0.0 1.6 0.00 0.00 0.00 90 1017.6
20260502030005 10 180 0.0 3.2 0.00 0.00 0.00 90 1017.5
20260502025403 10 180 0.0 3.2 0.00 0.00 0.00 90 1017.5
20260502024506 10 180 0.0 1.6 0.00 0.00 0.00 89 1017.6
20260502023818 10 180 0.0 1.6 0.00 0.00 0.00 89 1017.6
20260502022703 10 180 0.0 1.6 0.00 0.00 0.00 89 1017.6
20260502021805 10 180 0.0 4.8 0.00 0.00 0.00 89 1017.6
20260502020906 10 179 0.0 4.8 0.00 0.00 0.00 89 1017.6
20260502020005 10 175 0.0 4.8 0.00 0.00 0.00 89 1017.7
20260502015403 10 172 0.0 3.2 0.00 0.00 0.00 89 1017.7
20260502014503 10 171 0.0 3.2 0.00 0.00 0.00 88 1017.8
20260502013604 10 172 0.0 1.6 0.00 0.00 0.00 88 1017.9
20260502012705 11 171 0.0 1.6 0.00 0.00 0.00 87 1018.0
20260502011805 11 171 0.0 1.6 0.00 0.00 0.00 87 1018.0
20260502010905 11 171 0.0 1.6 0.00 0.00 0.00 87 1017.9
20260502010005 11 171 0.0 1.6 0.00 0.00 0.00 86 1018.1
20260502005405 11 171 0.0 3.2 0.00 0.00 0.00 86 1018.2
20260502004717 11 171 0.0 3.2 0.00 0.00 0.00 86 1018.3
20260502003608 11 171 0.0 1.6 0.00 0.00 0.00 85 1018.6
20260502002703 11 171 0.0 3.2 0.00 0.00 0.00 85 1018.6
20260502001805 11 171 0.0 3.2 0.00 0.00 0.00 84 1018.8
20260502000903 12 171 0.0 1.6 0.00 0.00 0.00 84 1018.8
20260502000005 12 171 0.0 3.2 0.00 0.00 0.00 84 1018.8
20260501235404 12 171 0.0 3.2 0.00 0.00 0.00 83 1018.8
20260501234503 12 172 0.0 4.8 0.00 0.00 0.00 83 1018.8
20260501233815 12 174 1.6 4.8 0.00 0.00 0.00 83 1018.9
20260501232703 13 159 1.6 8.0 0.00 0.00 0.00 82 1018.9
20260501231805 13 164 1.6 6.4 0.00 0.00 0.00 81 1019.0
20260501230903 13 175 1.6 6.4 0.00 0.00 0.00 81 1019.1
20260501230214 13 185 1.6 6.4 0.00 0.00 0.00 80 1019.1
20260501225405 14 182 0.0 4.8 0.00 0.00 0.00 80 1019.1
20260501224504 14 179 0.0 3.2 0.00 0.00 0.00 80 1018.8
20260501223605 14 179 0.0 3.2 0.00 0.00 0.00 79 1018.8
20260501222705 14 189 1.6 4.8 0.00 0.00 0.00 79 1018.8
20260501221804 15 209 0.0 3.2 0.00 0.00 0.00 79 1018.9
20260501221118 15 200 0.0 4.8 0.00 0.00 0.00 79 1018.9
20260501220215 15 193 0.0 4.8 0.00 0.00 0.00 78 1018.9
20260501215617 15 211 1.6 4.8 0.00 0.00 0.00 78 1018.8
20260501214505 16 250 0.0 3.2 0.00 0.00 0.00 78 1018.7
20260501213603 16 250 0.0 6.4 0.00 0.00 0.00 77 1018.6
20260501212705 16 220 1.6 8.0 0.00 0.00 0.00 77 1018.6
20260501211805 16 166 1.6 4.8 0.00 0.00 0.00 76 1018.8
20260501210904 16 162 1.6 6.4 0.00 0.00 0.00 75 1018.8
20260501210005 17 172 1.6 12.9 0.00 0.00 0.00 75 1018.8
20260501205406 17 154 1.6 12.9 0.00 0.00 0.00 74 1018.7
20260501204505 17 185 0.0 6.4 0.00 0.00 0.00 73 1018.7
20260501203603 17 188 0.0 4.8 0.00 0.00 0.00 72 1018.8
20260501202704 17 188 0.0 4.8 0.00 0.00 0.00 71 1018.6
20260501202017 17 189 0.0 3.2 0.00 0.00 0.00 70 1018.6
20260501200905 17 201 0.0 4.8 0.00 0.00 0.00 69 1018.7
20260501200005 17 236 1.6 6.4 0.00 0.00 0.00 68 1018.7
20260501195406 18 234 1.6 9.7 0.00 0.00 0.00 68 1018.7
20260501194505 18 188 1.6 9.7 0.00 0.00 0.00 67 1018.6
20260501193604 18 187 1.6 11.3 0.00 0.00 0.00 67 1018.6
20260501192703 18 222 1.6 11.3 0.00 0.00 0.00 67 1018.6
20260501191804 18 201 1.6 8.0 0.00 0.00 0.00 66 1018.4
20260501191115 18 242 1.6 12.9 0.00 0.00 0.00 66 1018.4
20260501190003 19 211 3.2 14.5 0.00 0.00 0.00 65 1018.3
20260501185403 19 205 3.2 11.3 0.00 0.00 0.00 64 1018.3
20260501183604 20 197 1.6 9.7 0.00 0.00 0.00 65 1018.4
20260501182703 20 198 1.6 9.7 0.00 0.00 0.00 64 1018.1
20260501181804 20 207 1.6 9.7 0.00 0.00 0.00 65 1018.1
20260501180905 20 186 1.6 8.0 0.00 0.00 0.00 65 1018.2